Year,Month,Day,Hour,Minute,Value (Times are PST for temperature in C)
2016,05,05,00,00,9.60
2016,05,05,00,01,9.60
2016,05,05,00,02,9.50
2016,05,05,00,03,9.50
2016,05,05,00,04,9.50
2016,05,05,00,05,9.40
2016,05,05,00,06,9.40
2016,05,05,00,07,9.40
2016,05,05,00,08,9.40
2016,05,05,00,09,9.30
2016,05,05,00,10,9.30
2016,05,05,00,11,9.30
2016,05,05,00,12,9.20
2016,05,05,00,13,9.20
2016,05,05,00,14,9.20
2016,05,05,00,15,9.10
2016,05,05,00,16,9.10
2016,05,05,00,17,9.10
2016,05,05,00,18,9.00
2016,05,05,00,19,9.00
2016,05,05,00,20,9.00
2016,05,05,00,21,8.90
2016,05,05,00,22,8.90
2016,05,05,00,23,8.90
2016,05,05,00,24,8.90
2016,05,05,00,25,8.90
2016,05,05,00,26,8.90
2016,05,05,00,27,8.80
2016,05,05,00,28,8.80
2016,05,05,00,29,8.80
2016,05,05,00,30,8.80
2016,05,05,00,31,8.80
2016,05,05,00,32,8.80
2016,05,05,00,33,8.80
2016,05,05,00,34,8.80
2016,05,05,00,35,8.80
2016,05,05,00,36,8.80
2016,05,05,00,37,8.80
2016,05,05,00,38,8.80
2016,05,05,00,39,8.70
2016,05,05,00,40,8.70
2016,05,05,00,41,8.70
2016,05,05,00,42,8.60
2016,05,05,00,43,8.60
2016,05,05,00,44,8.60
2016,05,05,00,45,8.60
2016,05,05,00,46,8.60
2016,05,05,00,47,8.50
2016,05,05,00,48,8.50
2016,05,05,00,49,8.50
2016,05,05,00,50,8.40
2016,05,05,00,51,8.40
2016,05,05,00,52,8.40
2016,05,05,00,53,8.30
2016,05,05,00,54,8.30
2016,05,05,00,55,8.30
2016,05,05,00,56,8.30
2016,05,05,00,57,8.20
2016,05,05,00,58,8.20
2016,05,05,00,59,8.20
2016,05,05,01,00,8.20
2016,05,05,01,01,8.20
2016,05,05,01,02,8.10
2016,05,05,01,03,8.10
2016,05,05,01,04,8.10
2016,05,05,01,05,8.00
2016,05,05,01,06,8.00
2016,05,05,01,07,8.00
2016,05,05,01,08,7.90
2016,05,05,01,09,7.90
2016,05,05,01,10,7.80
2016,05,05,01,11,7.80
2016,05,05,01,12,7.80
2016,05,05,01,13,7.70
2016,05,05,01,14,7.70
2016,05,05,01,15,7.70
2016,05,05,01,16,7.70
2016,05,05,01,17,7.60
2016,05,05,01,18,7.60
2016,05,05,01,19,7.60
2016,05,05,01,20,7.60
2016,05,05,01,21,7.50
2016,05,05,01,22,7.50
2016,05,05,01,23,7.50
2016,05,05,01,24,7.50
2016,05,05,01,25,7.50
2016,05,05,01,26,7.50
2016,05,05,01,27,7.50
2016,05,05,01,28,7.50
2016,05,05,01,29,7.50
2016,05,05,01,30,7.40
2016,05,05,01,31,7.40
2016,05,05,01,32,7.40
2016,05,05,01,33,7.40
2016,05,05,01,34,7.40
2016,05,05,01,35,7.40
2016,05,05,01,36,7.40
2016,05,05,01,37,7.40
2016,05,05,01,38,7.30
2016,05,05,01,39,7.30
2016,05,05,01,40,7.30
2016,05,05,01,41,7.30
2016,05,05,01,42,7.30
2016,05,05,01,43,7.20
2016,05,05,01,44,7.20
2016,05,05,01,45,7.20
2016,05,05,01,46,7.20
2016,05,05,01,47,7.10
2016,05,05,01,48,7.10
2016,05,05,01,49,7.10
2016,05,05,01,50,7.10
2016,05,05,01,51,7.00
2016,05,05,01,52,7.00
2016,05,05,01,53,7.00
2016,05,05,01,54,6.90
2016,05,05,01,55,6.90
2016,05,05,01,56,6.90
2016,05,05,01,57,6.90
2016,05,05,01,58,6.90
2016,05,05,01,59,6.90
2016,05,05,02,00,6.90
2016,05,05,02,01,6.90
2016,05,05,02,02,6.90
2016,05,05,02,03,6.90
2016,05,05,02,04,6.90
2016,05,05,02,05,6.80
2016,05,05,02,06,6.80
2016,05,05,02,07,6.80
2016,05,05,02,08,6.80
2016,05,05,02,09,6.80
2016,05,05,02,10,6.80
2016,05,05,02,11,6.70
2016,05,05,02,12,6.70
2016,05,05,02,13,6.70
2016,05,05,02,14,6.70
2016,05,05,02,15,6.70
2016,05,05,02,16,6.70
2016,05,05,02,17,6.70
2016,05,05,02,18,6.70
2016,05,05,02,19,6.70
2016,05,05,02,20,6.70
2016,05,05,02,21,6.70
2016,05,05,02,22,6.60
2016,05,05,02,23,6.60
2016,05,05,02,24,6.50
2016,05,05,02,25,6.50
2016,05,05,02,26,6.50
2016,05,05,02,27,6.40
2016,05,05,02,28,6.40
2016,05,05,02,29,6.40
2016,05,05,02,30,6.30
2016,05,05,02,31,6.30
2016,05,05,02,32,6.30
2016,05,05,02,33,6.30
2016,05,05,02,34,6.30
2016,05,05,02,35,6.30
2016,05,05,02,36,6.20
2016,05,05,02,37,6.20
2016,05,05,02,38,6.20
2016,05,05,02,39,6.20
2016,05,05,02,40,6.10
2016,05,05,02,41,6.10
2016,05,05,02,42,6.10
2016,05,05,02,43,6.10
2016,05,05,02,44,6.10
2016,05,05,02,45,6.00
2016,05,05,02,46,6.00
2016,05,05,02,47,6.00
2016,05,05,02,48,6.00
2016,05,05,02,49,6.00
2016,05,05,02,50,5.90
2016,05,05,02,51,5.90
2016,05,05,02,52,5.90
2016,05,05,02,53,5.90
2016,05,05,02,54,5.90
2016,05,05,02,55,5.90
2016,05,05,02,56,5.90
2016,05,05,02,57,5.90
2016,05,05,02,58,5.80
2016,05,05,02,59,5.80
2016,05,05,03,00,5.80
2016,05,05,03,01,5.80
2016,05,05,03,02,5.80
2016,05,05,03,03,5.80
2016,05,05,03,04,5.80
2016,05,05,03,05,5.80
2016,05,05,03,06,5.80
2016,05,05,03,07,5.80
2016,05,05,03,08,5.80
2016,05,05,03,09,5.80
2016,05,05,03,10,5.80
2016,05,05,03,11,5.80
2016,05,05,03,12,5.70
2016,05,05,03,13,5.70
2016,05,05,03,14,5.70
2016,05,05,03,15,5.70
2016,05,05,03,16,5.70
2016,05,05,03,17,5.70
2016,05,05,03,18,5.70
2016,05,05,03,19,5.60
2016,05,05,03,20,5.60
2016,05,05,03,21,5.60
2016,05,05,03,22,5.60
2016,05,05,03,23,5.60
2016,05,05,03,24,5.60
2016,05,05,03,25,5.60
2016,05,05,03,26,5.60
2016,05,05,03,27,5.50
2016,05,05,03,28,5.50
2016,05,05,03,29,5.50
2016,05,05,03,30,5.50
2016,05,05,03,31,5.50
2016,05,05,03,32,5.50
2016,05,05,03,33,5.40
2016,05,05,03,34,5.40
2016,05,05,03,35,5.40
2016,05,05,03,36,5.40
2016,05,05,03,37,5.40
2016,05,05,03,38,5.40
2016,05,05,03,39,5.30
2016,05,05,03,40,5.30
2016,05,05,03,41,5.30
2016,05,05,03,42,5.30
2016,05,05,03,43,5.30
2016,05,05,03,44,5.30
2016,05,05,03,45,5.30
2016,05,05,03,46,5.30
2016,05,05,03,47,5.30
2016,05,05,03,48,5.30
2016,05,05,03,49,5.30
2016,05,05,03,50,5.10
2016,05,05,03,51,5.10
2016,05,05,03,52,5.10
2016,05,05,03,53,5.20
2016,05,05,03,54,5.20
2016,05,05,03,55,5.20
2016,05,05,03,56,5.20
2016,05,05,03,57,5.20
2016,05,05,03,58,5.20
2016,05,05,03,59,5.20
2016,05,05,04,00,5.20
2016,05,05,04,01,5.20
2016,05,05,04,02,5.20
2016,05,05,04,03,5.20
2016,05,05,04,04,5.20
2016,05,05,04,05,5.20
2016,05,05,04,06,5.20
2016,05,05,04,07,5.20
2016,05,05,04,08,5.20
2016,05,05,04,09,5.20
2016,05,05,04,10,5.10
2016,05,05,04,11,5.10
2016,05,05,04,12,5.10
2016,05,05,04,13,5.10
2016,05,05,04,14,5.10
2016,05,05,04,15,5.10
2016,05,05,04,16,5.10
2016,05,05,04,17,5.10
2016,05,05,04,18,5.10
2016,05,05,04,19,5.10
2016,05,05,04,20,5.10
2016,05,05,04,21,5.10
2016,05,05,04,22,5.10
2016,05,05,04,23,5.00
2016,05,05,04,24,5.00
2016,05,05,04,25,5.00
2016,05,05,04,26,5.00
2016,05,05,04,27,4.90
2016,05,05,04,28,4.90
2016,05,05,04,29,4.90
2016,05,05,04,30,4.90
2016,05,05,04,31,4.90
2016,05,05,04,32,4.80
2016,05,05,04,33,4.80
2016,05,05,04,34,4.80
2016,05,05,04,35,4.80
2016,05,05,04,36,4.80
2016,05,05,04,37,4.80
2016,05,05,04,38,4.80
2016,05,05,04,39,4.80
2016,05,05,04,40,4.70
2016,05,05,04,41,4.70
2016,05,05,04,42,4.70
2016,05,05,04,43,4.70
2016,05,05,04,44,4.70
2016,05,05,04,45,4.70
2016,05,05,04,46,4.70
2016,05,05,04,47,4.70
2016,05,05,04,48,4.70
2016,05,05,04,49,4.70
2016,05,05,04,50,4.70
2016,05,05,04,51,4.70
2016,05,05,04,52,4.70
2016,05,05,04,53,4.70
2016,05,05,04,54,4.70
2016,05,05,04,55,4.70
2016,05,05,04,56,4.70
2016,05,05,04,57,4.70
2016,05,05,04,58,4.60
2016,05,05,04,59,4.60
2016,05,05,05,00,4.60
2016,05,05,05,01,4.60
2016,05,05,05,02,4.60
2016,05,05,05,03,4.60
2016,05,05,05,04,4.60
2016,05,05,05,05,4.60
2016,05,05,05,06,4.60
2016,05,05,05,07,4.60
2016,05,05,05,08,4.60
2016,05,05,05,09,4.60
2016,05,05,05,10,4.60
2016,05,05,05,11,4.60
2016,05,05,05,12,4.60
2016,05,05,05,13,4.60
2016,05,05,05,14,4.60
2016,05,05,05,15,4.60
2016,05,05,05,16,4.60
2016,05,05,05,17,4.60
2016,05,05,05,18,4.60
2016,05,05,05,19,4.60
2016,05,05,05,20,4.60
2016,05,05,05,21,4.60
2016,05,05,05,22,4.50
2016,05,05,05,23,4.50
2016,05,05,05,24,4.50
2016,05,05,05,25,4.50
2016,05,05,05,26,4.40
2016,05,05,05,27,4.40
2016,05,05,05,28,4.50
2016,05,05,05,29,4.50
2016,05,05,05,30,4.50
2016,05,05,05,31,4.50
2016,05,05,05,32,4.50
2016,05,05,05,33,4.40
2016,05,05,05,34,4.40
2016,05,05,05,35,4.40
2016,05,05,05,36,4.40
2016,05,05,05,37,4.40
2016,05,05,05,38,4.40
2016,05,05,05,39,4.40
2016,05,05,05,40,4.40
2016,05,05,05,41,4.30
2016,05,05,05,42,4.30
2016,05,05,05,43,4.30
2016,05,05,05,44,4.30
2016,05,05,05,45,4.30
2016,05,05,05,46,4.30
2016,05,05,05,47,4.30
2016,05,05,05,48,4.30
2016,05,05,05,49,4.30
2016,05,05,05,50,4.20
2016,05,05,05,51,4.20
2016,05,05,05,52,4.20
2016,05,05,05,53,4.20
2016,05,05,05,54,4.20
2016,05,05,05,55,4.20
2016,05,05,05,56,4.20
2016,05,05,05,57,4.10
2016,05,05,05,58,4.10
2016,05,05,05,59,4.10
2016,05,05,06,00,4.10
2016,05,05,06,01,4.10
2016,05,05,06,02,4.10
2016,05,05,06,03,4.00
2016,05,05,06,04,4.00
2016,05,05,06,05,4.00
2016,05,05,06,06,4.00
2016,05,05,06,07,4.00
2016,05,05,06,08,4.00
2016,05,05,06,09,3.90
2016,05,05,06,10,3.90
2016,05,05,06,11,3.90
2016,05,05,06,12,3.90
2016,05,05,06,13,3.90
2016,05,05,06,14,3.90
2016,05,05,06,15,3.90
2016,05,05,06,16,3.90
2016,05,05,06,17,3.90
2016,05,05,06,18,3.90
2016,05,05,06,19,3.90
2016,05,05,06,20,3.90
2016,05,05,06,21,3.90
2016,05,05,06,22,3.90
2016,05,05,06,23,3.90
2016,05,05,06,24,3.90
2016,05,05,06,25,3.90
2016,05,05,06,26,3.90
2016,05,05,06,27,3.90
2016,05,05,06,28,4.00
2016,05,05,06,29,4.00
2016,05,05,06,30,4.00
2016,05,05,06,31,4.00
2016,05,05,06,32,4.10
2016,05,05,06,33,4.00
2016,05,05,06,34,4.00
2016,05,05,06,35,4.00
2016,05,05,06,36,4.00
2016,05,05,06,37,4.00
2016,05,05,06,38,4.00
2016,05,05,06,39,4.10
2016,05,05,06,40,4.10
2016,05,05,06,41,4.10
2016,05,05,06,42,4.10
2016,05,05,06,43,4.10
2016,05,05,06,44,4.10
2016,05,05,06,45,4.20
2016,05,05,06,46,4.20
2016,05,05,06,47,4.20
2016,05,05,06,48,4.30
2016,05,05,06,49,4.30
2016,05,05,06,50,4.30
2016,05,05,06,51,4.30
2016,05,05,06,52,4.30
2016,05,05,06,53,4.30
2016,05,05,06,54,4.40
2016,05,05,06,55,4.40
2016,05,05,06,56,4.40
2016,05,05,06,57,4.40
2016,05,05,06,58,4.50
2016,05,05,06,59,4.50
2016,05,05,07,00,4.50
2016,05,05,07,01,4.60
2016,05,05,07,02,4.60
2016,05,05,07,03,4.60
2016,05,05,07,04,4.60
2016,05,05,07,05,4.70
2016,05,05,07,06,4.70
2016,05,05,07,07,4.80
2016,05,05,07,08,4.90
2016,05,05,07,09,5.00
2016,05,05,07,10,5.00
2016,05,05,07,11,5.10
2016,05,05,07,12,5.20
2016,05,05,07,13,5.20
2016,05,05,07,14,5.30
2016,05,05,07,15,5.30
2016,05,05,07,16,5.30
2016,05,05,07,17,5.40
2016,05,05,07,18,5.40
2016,05,05,07,19,5.40
2016,05,05,07,20,5.40
2016,05,05,07,21,5.50
2016,05,05,07,22,5.60
2016,05,05,07,23,5.70
2016,05,05,07,24,5.80
2016,05,05,07,25,5.80
2016,05,05,07,26,5.80
2016,05,05,07,27,5.80
2016,05,05,07,28,5.80
2016,05,05,07,29,6.10
2016,05,05,07,30,6.30
2016,05,05,07,31,6.30
2016,05,05,07,32,6.30
2016,05,05,07,33,6.30
2016,05,05,07,34,6.30
2016,05,05,07,35,6.30
2016,05,05,07,36,6.40
2016,05,05,07,37,6.40
2016,05,05,07,38,6.50
2016,05,05,07,39,6.60
2016,05,05,07,40,6.70
2016,05,05,07,41,6.80
2016,05,05,07,42,6.90
2016,05,05,07,43,7.00
2016,05,05,07,44,7.10
2016,05,05,07,45,7.20
2016,05,05,07,46,7.30
2016,05,05,07,47,7.30
2016,05,05,07,48,7.40
2016,05,05,07,49,7.50
2016,05,05,07,50,7.60
2016,05,05,07,51,7.60
2016,05,05,07,52,7.60
2016,05,05,07,53,7.70
2016,05,05,07,54,7.70
2016,05,05,07,55,7.70
2016,05,05,07,56,7.70
2016,05,05,07,57,7.70
2016,05,05,07,58,7.80
2016,05,05,07,59,7.80
2016,05,05,08,00,7.80
2016,05,05,08,01,7.90
2016,05,05,08,02,7.90
2016,05,05,08,03,7.90
2016,05,05,08,04,8.00
2016,05,05,08,05,8.00
2016,05,05,08,06,8.10
2016,05,05,08,07,8.10
2016,05,05,08,08,8.20
2016,05,05,08,09,8.20
2016,05,05,08,10,8.30
2016,05,05,08,11,8.30
2016,05,05,08,12,8.30
2016,05,05,08,13,8.40
2016,05,05,08,14,8.50
2016,05,05,08,15,8.60
2016,05,05,08,16,8.60
2016,05,05,08,17,8.70
2016,05,05,08,18,8.90
2016,05,05,08,19,9.00
2016,05,05,08,20,9.20
2016,05,05,08,21,9.30
2016,05,05,08,22,9.40
2016,05,05,08,23,9.60
2016,05,05,08,24,9.70
2016,05,05,08,25,9.80
2016,05,05,08,26,9.80
2016,05,05,08,27,9.90
2016,05,05,08,28,9.90
2016,05,05,08,29,9.90
2016,05,05,08,30,9.90
2016,05,05,08,31,9.90
2016,05,05,08,32,9.90
2016,05,05,08,33,9.90
2016,05,05,08,34,10.00
2016,05,05,08,35,10.00
2016,05,05,08,36,10.10
2016,05,05,08,37,10.10
2016,05,05,08,38,10.20
2016,05,05,08,39,10.20
2016,05,05,08,40,10.20
2016,05,05,08,41,10.20
2016,05,05,08,42,10.20
2016,05,05,08,43,10.20
2016,05,05,08,44,10.20
2016,05,05,08,45,10.30
2016,05,05,08,46,10.30
2016,05,05,08,47,10.30
2016,05,05,08,48,10.30
2016,05,05,08,49,10.40
2016,05,05,08,50,10.40
2016,05,05,08,51,10.40
2016,05,05,08,52,10.50
2016,05,05,08,53,10.60
2016,05,05,08,54,10.70
2016,05,05,08,55,10.70
2016,05,05,08,56,10.80
2016,05,05,08,57,10.80
2016,05,05,08,58,10.90
2016,05,05,08,59,11.00
2016,05,05,09,00,11.10
2016,05,05,09,01,11.10
2016,05,05,09,02,11.20
2016,05,05,09,03,11.30
2016,05,05,09,04,11.30
2016,05,05,09,05,11.40
2016,05,05,09,06,11.40
2016,05,05,09,07,11.50
2016,05,05,09,08,11.60
2016,05,05,09,09,11.60
2016,05,05,09,10,11.70
2016,05,05,09,11,11.70
2016,05,05,09,12,11.80
2016,05,05,09,13,11.80
2016,05,05,09,14,11.90
2016,05,05,09,15,12.00
2016,05,05,09,16,12.00
2016,05,05,09,17,12.00
2016,05,05,09,18,12.00
2016,05,05,09,19,12.00
2016,05,05,09,20,12.10
2016,05,05,09,21,12.20
2016,05,05,09,22,12.20
2016,05,05,09,23,12.30
2016,05,05,09,24,12.40
2016,05,05,09,25,12.50
2016,05,05,09,26,12.50
2016,05,05,09,27,12.50
2016,05,05,09,28,12.60
2016,05,05,09,29,12.70
2016,05,05,09,30,12.70
2016,05,05,09,31,12.80
2016,05,05,09,32,12.90
2016,05,05,09,33,12.90
2016,05,05,09,34,12.90
2016,05,05,09,35,12.90
2016,05,05,09,36,13.00
2016,05,05,09,37,13.00
2016,05,05,09,38,13.10
2016,05,05,09,39,13.20
2016,05,05,09,40,13.30
2016,05,05,09,41,13.40
2016,05,05,09,42,13.60
2016,05,05,09,43,13.70
2016,05,05,09,44,13.70
2016,05,05,09,45,13.70
2016,05,05,09,46,13.70
2016,05,05,09,47,13.70
2016,05,05,09,48,13.70
2016,05,05,09,49,13.70
2016,05,05,09,50,13.80
2016,05,05,09,51,13.80
2016,05,05,09,52,13.90
2016,05,05,09,53,14.10
2016,05,05,09,54,14.20
2016,05,05,09,55,14.20
2016,05,05,09,56,14.20
2016,05,05,09,57,14.30
2016,05,05,09,58,14.30
2016,05,05,09,59,14.30
2016,05,05,10,00,14.40
2016,05,05,10,01,14.40
2016,05,05,10,02,14.40
2016,05,05,10,03,14.40
2016,05,05,10,04,14.40
2016,05,05,10,05,14.50
2016,05,05,10,06,14.50
2016,05,05,10,07,14.60
2016,05,05,10,08,14.70
2016,05,05,10,09,14.90
2016,05,05,10,10,15.00
2016,05,05,10,11,15.20
2016,05,05,10,12,15.30
2016,05,05,10,13,15.40
2016,05,05,10,14,15.30
2016,05,05,10,15,15.30
2016,05,05,10,16,15.30
2016,05,05,10,17,15.20
2016,05,05,10,18,15.10
2016,05,05,10,19,15.10
2016,05,05,10,20,15.10
2016,05,05,10,21,15.10
2016,05,05,10,22,15.10
2016,05,05,10,23,15.10
2016,05,05,10,24,15.10
2016,05,05,10,25,15.10
2016,05,05,10,26,15.20
2016,05,05,10,27,15.30
2016,05,05,10,28,15.40
2016,05,05,10,29,15.50
2016,05,05,10,30,15.50
2016,05,05,10,31,15.50
2016,05,05,10,32,15.50
2016,05,05,10,33,15.60
2016,05,05,10,34,15.70
2016,05,05,10,35,15.80
2016,05,05,10,36,15.90
2016,05,05,10,37,16.00
2016,05,05,10,38,16.10
2016,05,05,10,39,16.00
2016,05,05,10,40,16.00
2016,05,05,10,41,16.00
2016,05,05,10,42,16.00
2016,05,05,10,43,16.00
2016,05,05,10,44,16.10
2016,05,05,10,45,16.20
2016,05,05,10,46,16.30
2016,05,05,10,47,16.40
2016,05,05,10,48,16.50
2016,05,05,10,49,16.50
2016,05,05,10,50,16.60
2016,05,05,10,51,16.60
2016,05,05,10,52,16.70
2016,05,05,10,53,16.70
2016,05,05,10,54,16.60
2016,05,05,10,55,16.60
2016,05,05,10,56,16.60
2016,05,05,10,57,16.70
2016,05,05,10,58,16.70
2016,05,05,10,59,16.70
2016,05,05,11,00,16.60
2016,05,05,11,01,16.40
2016,05,05,11,02,16.20
2016,05,05,11,03,16.10
2016,05,05,11,04,16.00
2016,05,05,11,05,16.00
2016,05,05,11,06,15.90
2016,05,05,11,07,15.90
2016,05,05,11,08,15.90
2016,05,05,11,09,15.90
2016,05,05,11,10,16.00
2016,05,05,11,11,16.00
2016,05,05,11,12,16.00
2016,05,05,11,13,16.10
2016,05,05,11,14,16.10
2016,05,05,11,15,16.10
2016,05,05,11,16,16.10
2016,05,05,11,17,16.20
2016,05,05,11,18,16.20
2016,05,05,11,19,16.30
2016,05,05,11,20,16.30
2016,05,05,11,21,16.40
2016,05,05,11,22,16.40
2016,05,05,11,23,16.50
2016,05,05,11,24,16.60
2016,05,05,11,25,16.60
2016,05,05,11,26,16.70
2016,05,05,11,27,16.80
2016,05,05,11,28,16.80
2016,05,05,11,29,16.80
2016,05,05,11,30,16.80
2016,05,05,11,31,16.80
2016,05,05,11,32,16.80
2016,05,05,11,33,16.80
2016,05,05,11,34,16.80
2016,05,05,11,35,16.80
2016,05,05,11,36,16.80
2016,05,05,11,37,16.90
2016,05,05,11,38,16.80
2016,05,05,11,39,16.80
2016,05,05,11,40,16.80
2016,05,05,11,41,16.80
2016,05,05,11,42,16.80
2016,05,05,11,43,16.80
2016,05,05,11,44,16.80
2016,05,05,11,45,16.90
2016,05,05,11,46,16.90
2016,05,05,11,47,16.90
2016,05,05,11,48,17.00
2016,05,05,11,49,17.10
2016,05,05,11,50,17.10
2016,05,05,11,51,17.10
2016,05,05,11,52,17.10
2016,05,05,11,53,17.20
2016,05,05,11,54,17.20
2016,05,05,11,55,17.20
2016,05,05,11,56,17.30
2016,05,05,11,57,17.30
2016,05,05,11,58,17.30
2016,05,05,11,59,17.40
2016,05,05,12,00,17.40
2016,05,05,12,01,17.40
2016,05,05,12,02,17.40
2016,05,05,12,03,17.40
2016,05,05,12,04,17.40
2016,05,05,12,05,17.40
2016,05,05,12,06,17.40
2016,05,05,12,07,17.40
2016,05,05,12,08,17.40
2016,05,05,12,09,17.50
2016,05,05,12,10,17.50
2016,05,05,12,11,17.60
2016,05,05,12,12,17.60
2016,05,05,12,13,17.60
2016,05,05,12,14,17.50
2016,05,05,12,15,17.50
2016,05,05,12,16,17.60
2016,05,05,12,17,17.60
2016,05,05,12,18,17.60
2016,05,05,12,19,17.70
2016,05,05,12,20,17.70
2016,05,05,12,21,17.80
2016,05,05,12,22,17.80
2016,05,05,12,23,17.80
2016,05,05,12,24,17.90
2016,05,05,12,25,18.00
2016,05,05,12,26,18.10
2016,05,05,12,27,18.10
2016,05,05,12,28,18.20
2016,05,05,12,29,18.30
2016,05,05,12,30,18.40
2016,05,05,12,31,18.40
2016,05,05,12,32,18.50
2016,05,05,12,33,18.50
2016,05,05,12,34,18.50
2016,05,05,12,35,18.50
2016,05,05,12,36,18.50
2016,05,05,12,37,18.50
2016,05,05,12,38,18.50
2016,05,05,12,39,18.60
2016,05,05,12,40,18.70
2016,05,05,12,41,18.70
2016,05,05,12,42,18.70
2016,05,05,12,43,18.80
2016,05,05,12,44,18.90
2016,05,05,12,45,18.90
2016,05,05,12,46,19.00
2016,05,05,12,47,19.00
2016,05,05,12,48,19.20
2016,05,05,12,49,19.20
2016,05,05,12,50,19.20
2016,05,05,12,51,19.10
2016,05,05,12,52,19.10
2016,05,05,12,53,19.00
2016,05,05,12,54,19.00
2016,05,05,12,55,19.00
2016,05,05,12,56,19.00
2016,05,05,12,57,19.00
2016,05,05,12,58,19.00
2016,05,05,12,59,19.00
2016,05,05,13,00,19.00
2016,05,05,13,01,19.00
2016,05,05,13,02,19.10
2016,05,05,13,03,19.10
2016,05,05,13,04,19.20
2016,05,05,13,05,19.20
2016,05,05,13,06,19.20
2016,05,05,13,07,19.20
2016,05,05,13,08,19.20
2016,05,05,13,09,19.20
2016,05,05,13,10,19.20
2016,05,05,13,11,19.10
2016,05,05,13,12,19.10
2016,05,05,13,13,19.10
2016,05,05,13,14,19.20
2016,05,05,13,15,19.30
2016,05,05,13,16,19.30
2016,05,05,13,17,19.30
2016,05,05,13,18,19.40
2016,05,05,13,19,19.40
2016,05,05,13,20,19.40
2016,05,05,13,21,19.40
2016,05,05,13,22,19.40
2016,05,05,13,23,19.40
2016,05,05,13,24,19.30
2016,05,05,13,25,19.40
2016,05,05,13,26,19.40
2016,05,05,13,27,19.50
2016,05,05,13,28,19.50
2016,05,05,13,29,19.60
2016,05,05,13,30,19.70
2016,05,05,13,31,19.70
2016,05,05,13,32,19.80
2016,05,05,13,33,19.80
2016,05,05,13,34,19.90
2016,05,05,13,35,19.90
2016,05,05,13,36,20.00
2016,05,05,13,37,20.00
2016,05,05,13,38,20.00
2016,05,05,13,39,20.10
2016,05,05,13,40,20.20
2016,05,05,13,41,20.20
2016,05,05,13,42,20.30
2016,05,05,13,43,20.40
2016,05,05,13,44,20.40
2016,05,05,13,45,20.40
2016,05,05,13,46,20.40
2016,05,05,13,47,20.40
2016,05,05,13,48,20.50
2016,05,05,13,49,20.60
2016,05,05,13,50,20.70
2016,05,05,13,51,20.70
2016,05,05,13,52,20.70
2016,05,05,13,53,20.70
2016,05,05,13,54,20.80
2016,05,05,13,55,20.80
2016,05,05,13,56,20.90
2016,05,05,13,57,21.00
2016,05,05,13,58,21.00
2016,05,05,13,59,21.00
2016,05,05,14,00,21.00
2016,05,05,14,01,21.00
2016,05,05,14,02,20.90
2016,05,05,14,03,20.90
2016,05,05,14,04,20.90
2016,05,05,14,05,20.90
2016,05,05,14,06,21.00
2016,05,05,14,07,21.00
2016,05,05,14,08,21.10
2016,05,05,14,09,21.10
2016,05,05,14,10,21.20
2016,05,05,14,11,21.20
2016,05,05,14,12,21.20
2016,05,05,14,13,21.20
2016,05,05,14,14,21.30
2016,05,05,14,15,21.30
2016,05,05,14,16,21.30
2016,05,05,14,17,21.30
2016,05,05,14,18,21.30
2016,05,05,14,19,21.30
2016,05,05,14,20,21.30
2016,05,05,14,21,21.30
2016,05,05,14,22,21.30
2016,05,05,14,23,21.30
2016,05,05,14,24,21.30
2016,05,05,14,25,21.30
2016,05,05,14,26,21.30
2016,05,05,14,27,21.40
2016,05,05,14,28,21.40
2016,05,05,14,29,21.40
2016,05,05,14,30,21.40
2016,05,05,14,31,21.40
2016,05,05,14,32,21.40
2016,05,05,14,33,21.30
2016,05,05,14,34,21.30
2016,05,05,14,35,21.30
2016,05,05,14,36,21.40
2016,05,05,14,37,21.40
2016,05,05,14,38,21.40
2016,05,05,14,39,21.50
2016,05,05,14,40,21.50
2016,05,05,14,41,21.60
2016,05,05,14,42,21.60
2016,05,05,14,43,21.60
2016,05,05,14,44,21.60
2016,05,05,14,45,21.70
2016,05,05,14,46,21.80
2016,05,05,14,47,21.80
2016,05,05,14,48,21.80
2016,05,05,14,49,21.70
2016,05,05,14,50,21.70
2016,05,05,14,51,21.70
2016,05,05,14,52,21.70
2016,05,05,14,53,21.70
2016,05,05,14,54,21.80
2016,05,05,14,55,21.80
2016,05,05,14,56,21.90
2016,05,05,14,57,21.80
2016,05,05,14,58,21.80
2016,05,05,14,59,21.80
2016,05,05,15,00,21.80
2016,05,05,15,01,21.80
2016,05,05,15,02,21.90
2016,05,05,15,03,21.90
2016,05,05,15,04,21.90
2016,05,05,15,05,21.90
2016,05,05,15,06,21.90
2016,05,05,15,07,21.90
2016,05,05,15,08,21.90
2016,05,05,15,09,22.00
2016,05,05,15,10,22.00
2016,05,05,15,11,22.10
2016,05,05,15,12,22.10
2016,05,05,15,13,22.10
2016,05,05,15,14,22.10
2016,05,05,15,15,22.10
2016,05,05,15,16,22.10
2016,05,05,15,17,22.00
2016,05,05,15,18,22.00
2016,05,05,15,19,22.00
2016,05,05,15,20,22.10
2016,05,05,15,21,22.10
2016,05,05,15,22,22.10
2016,05,05,15,23,22.10
2016,05,05,15,24,22.10
2016,05,05,15,25,22.10
2016,05,05,15,26,22.10
2016,05,05,15,27,22.10
2016,05,05,15,28,22.20
2016,05,05,15,29,22.20
2016,05,05,15,30,22.20
2016,05,05,15,31,22.20
2016,05,05,15,32,22.20
2016,05,05,15,33,22.20
2016,05,05,15,34,22.20
2016,05,05,15,35,22.20
2016,05,05,15,36,22.20
2016,05,05,15,37,22.20
2016,05,05,15,38,22.20
2016,05,05,15,39,22.20
2016,05,05,15,40,22.20
2016,05,05,15,41,22.20
2016,05,05,15,42,22.20
2016,05,05,15,43,22.30
2016,05,05,15,44,22.30
2016,05,05,15,45,22.30
2016,05,05,15,46,22.30
2016,05,05,15,47,22.30
2016,05,05,15,48,22.30
2016,05,05,15,49,22.30
2016,05,05,15,50,22.30
2016,05,05,15,51,22.40
2016,05,05,15,52,22.40
2016,05,05,15,53,22.40
2016,05,05,15,54,22.40
2016,05,05,15,55,22.40
2016,05,05,15,56,22.40
2016,05,05,15,57,22.40
2016,05,05,15,58,22.40
2016,05,05,15,59,22.40
2016,05,05,16,00,22.40
2016,05,05,16,01,22.50
2016,05,05,16,02,22.50
2016,05,05,16,03,22.50
2016,05,05,16,04,22.50
2016,05,05,16,05,22.50
2016,05,05,16,06,22.50
2016,05,05,16,07,22.50
2016,05,05,16,08,22.40
2016,05,05,16,09,22.40
2016,05,05,16,10,22.40
2016,05,05,16,11,22.40
2016,05,05,16,12,22.40
2016,05,05,16,13,22.50
2016,05,05,16,14,22.50
2016,05,05,16,15,22.60
2016,05,05,16,16,22.50
2016,05,05,16,17,22.50
2016,05,05,16,18,22.40
2016,05,05,16,19,22.40
2016,05,05,16,20,22.40
2016,05,05,16,21,22.40
2016,05,05,16,22,22.40
2016,05,05,16,23,22.40
2016,05,05,16,24,22.40
2016,05,05,16,25,22.40
2016,05,05,16,26,22.40
2016,05,05,16,27,22.40
2016,05,05,16,28,22.50
2016,05,05,16,29,22.60
2016,05,05,16,30,22.60
2016,05,05,16,31,22.60
2016,05,05,16,32,22.60
2016,05,05,16,33,22.60
2016,05,05,16,34,22.60
2016,05,05,16,35,22.60
2016,05,05,16,36,22.60
2016,05,05,16,37,22.60
2016,05,05,16,38,22.60
2016,05,05,16,39,22.50
2016,05,05,16,40,22.50
2016,05,05,16,41,22.50
2016,05,05,16,42,22.60
2016,05,05,16,43,22.50
2016,05,05,16,44,22.50
2016,05,05,16,45,22.60
2016,05,05,16,46,22.60
2016,05,05,16,47,22.50
2016,05,05,16,48,22.50
2016,05,05,16,49,22.50
2016,05,05,16,50,22.50
2016,05,05,16,51,22.50
2016,05,05,16,52,22.50
2016,05,05,16,53,22.50
2016,05,05,16,54,22.60
2016,05,05,16,55,22.60
2016,05,05,16,56,22.70
2016,05,05,16,57,22.70
2016,05,05,16,58,22.70
2016,05,05,16,59,22.60
2016,05,05,17,00,22.60
2016,05,05,17,01,22.70
2016,05,05,17,02,22.70
2016,05,05,17,03,22.80
2016,05,05,17,04,22.80
2016,05,05,17,05,22.80
2016,05,05,17,06,22.80
2016,05,05,17,07,22.80
2016,05,05,17,08,22.80
2016,05,05,17,09,22.70
2016,05,05,17,10,22.70
2016,05,05,17,11,22.70
2016,05,05,17,12,22.70
2016,05,05,17,13,22.80
2016,05,05,17,14,22.80
2016,05,05,17,15,22.80
2016,05,05,17,16,22.80
2016,05,05,17,17,22.80
2016,05,05,17,18,22.80
2016,05,05,17,19,22.80
2016,05,05,17,20,22.80
2016,05,05,17,21,22.70
2016,05,05,17,22,22.70
2016,05,05,17,23,22.70
2016,05,05,17,24,22.80
2016,05,05,17,25,22.80
2016,05,05,17,26,22.80
2016,05,05,17,27,22.80
2016,05,05,17,28,22.90
2016,05,05,17,29,22.90
2016,05,05,17,30,23.00
2016,05,05,17,31,23.00
2016,05,05,17,32,22.90
2016,05,05,17,33,22.90
2016,05,05,17,34,22.90
2016,05,05,17,35,22.80
2016,05,05,17,36,22.80
2016,05,05,17,37,22.80
2016,05,05,17,38,22.90
2016,05,05,17,39,22.90
2016,05,05,17,40,22.80
2016,05,05,17,41,22.80